User: anonymous   Login
Location: Budapest
(47.4979°N, 19.0402°E)
Time: 13:10:50
(UTC+01:00)
Language:

Envisat - Orbit

View from above orbital plane
View from above orbital plane
View from above satellite
View from above satellite

Ground track
Ground track

The orbit data is extracted from the following two-line orbital elements,

1 27386U 02009A   18053.47835679 +.00000008 +00000-0 +16298-4 0  9991
2 27386 098.1994 092.8576 0001278 087.8002 272.3335 14.37916044837044
Epoch (UTC): 22 February 2018 11:28:50
Eccentricity: 0.0001278
inclination: 98.1994°
perigee height: 764 km
apogee height: 766 km
right ascension of ascending node: 92.8576°
argument of perigee: 87.8002°
revolutions per day: 14.37916044
mean anomaly at epoch: 272.3335°
orbit number at epoch: 83704

The dashed part of the orbit path shows where the satellite is in the earth's shadow,  

DLR